{"data":{"norad_id":53485,"epoch":"2026-09-20T22:00:03.000096Z","epoch_age_seconds":42986,"freshness":"FRESH","line1":"1 53485U 22099W   26263.91670139  .00624311  00000+0  29038-1 0  9991","line2":"2 53485  97.2847  17.7826 0001629  90.0102 109.1246 15.17808771  5783","mean_motion":15.17808771,"eccentricity":0.0001629,"inclination_deg":97.2847,"raan_deg":17.7826,"arg_perigee_deg":90.0102,"mean_anomaly_deg":109.1246,"bstar":0.029038,"rev_number":578,"period_min":94.873611716663,"perigee_km":511.34204526586,"apogee_km":513.58700324246,"semimajor_km":6890.6015242542,"source":"CELESTRAK","updated_at":"2026-09-21T09:00:32.891475Z"}}